Погода в Мсте

Россия / Тверская область     57°55′02″N   34°31′21″E
темп.,
°C
ветер,
м/с
пор.,
м/с
влажн.,
%
обл.,
%
осадки,
мм/ч
давл.,
гПа
погр.,
м
26 января, вт
вт2600:00+1ююв41097100 0.1 1009411
03:00+2юв41096100 0.1 1008428
06:00+1юв41194100 0.0 1008574
09:00+1юв51295100 0.0 1006515
12:00+2вюв51293100 0.0 1005536
15:00+1юв61191100 0.0 1004773
18:00+1вюв5129297 0.0 1002844
21:00+1вюв5119799 0.1 1000659
27 января, ср
ср2700:000ююв61195100 0.4 1000809
03:00−2юв4119299 0.6 1000728
06:00−1юв4109699 0.4 998767
09:00−2юв499699 1.1 997625
12:00−1юв3695100 0.9 997438
15:000зюз2593100 1.6 999462
18:00−1зюз379395 0.1 1001380
21:00−2юз389596 0.1 1004354
28 января, чт
чт2800:00−2юз149596 0.1 1006160
03:00−5ю229679 0.1 100726
06:00−5ююв229578 0.0 100835
09:00−6юв239578 0.0 100966
12:00−3юв259498 0.0 1009227
15:00−2вюв369299 0.0 1009374
18:00−3в3795100 0.0 1007330
21:00−3в4996100 1.0 1006378
29 января, пт
пт2900:00−2вюв4897100 1.4 1004349
03:00+2вюв3998100 2.1 1003325
06:00+2юв41098100 0.1 1002455
09:00+1юв3896100 0.1 1001367
12:000вюв3797100 0.1 1001370
15:000в3697100 0.9 999394
18:00−1в4897100 2.1 998501
21:00−2вюв41096100 4.1 996585
30 января, сб
сб3000:00−4в4994100 0.7 995516
03:00−5в4893100 1.1 994427
06:00−6в3893100 0.3 993369
09:00−7в3795100 0.6 992356
12:00−5вюв3595100 1.0 992295
15:00−1ююв3696100 1.8 991426
18:00−2ю4995100 0.9 991504
21:00−3ю41095100 1.4 991483